Weather History for St. Johns, AZ

Change the Weather History Date:

Tuesday, October 8, 2013

  Actual Average (KSOW) Record (KSOW)
Temperature  
Mean Temperature 51 °F -  
Max Temperature 68 °F 68 °F 81 °F (1980)
Min Temperature 34 °F 45 °F 25 °F (1967)
Degree Days  
Heating Degree Days 14    
Growing Degree Days 1 (Base 50)    
Moisture  
Dew Point 25 °F    
Average Humidity 29    
Maximum Humidity 51    
Minimum Humidity 13    
Precipitation  
Precipitation 0.00 in - - ()
Sea Level Pressure  
Sea Level Pressure 29.83 in    
Wind  
Wind Speed 6 mph (SW)    
Max Wind Speed 26 mph    
Max Gust Speed 30 mph    
Visibility 10 miles    
Events      
Averages and records for this station are not official NWS values.
T = Trace of Precipitation, MM = Missing Value Source: NWS Daily Summary

Daily Weather History Graph

Daily Weather History Graph

Search for Another Location

Airport:

Trip Planner

Search our weather history database for the weather conditions in past years. The results will help you decide how hot, cold, wet, or windy it might be!

Date:

Astronomy

Oct. 08, 2013 Rise Set
Actual Time 6:17 AM MST 5:51 PM MST
Civil Twilight 5:52 AM MST 6:16 PM MST
Nautical Twilight 5:23 AM MST 6:45 PM MST
Astronomical Twilight 4:54 AM MST 7:15 PM MST
Moon 10:06 AM MST (10/8) 8:40 PM MST (10/8)
Length of Visible Light 12h 24m
Length of Day
11h 33m
Waxing Crescent, 17% of the Moon is Illuminated
Oct 8
Waxing Crescent
Oct 11
First Quarter
Oct 18
Full
Oct 26
Last Quarter
Nov 3
New

Hourly Weather History & Observations

Time (MST) Temp. Windchill Dew Point Humidity Pressure Visibility Wind Dir Wind Speed Gust Speed Precip Events Conditions
12:54 AM 48.9 °F - 23.0 °F 36% 29.90 in 10.0 mi Calm Calm - N/A   Clear
1:54 AM 45.0 °F 43.5 °F 23.0 °F 42% 29.90 in 10.0 mi West 3.5 mph - N/A   Clear
3:54 AM 44.1 °F - 21.9 °F 42% 29.88 in 10.0 mi Calm Calm - N/A   Clear
4:54 AM 43.0 °F 41.3 °F 24.1 °F 47% 29.89 in 10.0 mi South 3.5 mph - N/A   Clear
5:54 AM 44.1 °F 42.5 °F 21.9 °F 42% 29.91 in 10.0 mi ENE 3.5 mph - N/A   Clear
6:54 AM 42.1 °F - 25.0 °F 51% 29.94 in 10.0 mi Calm Calm - N/A   Clear
7:54 AM 48.0 °F - 26.1 °F 42% 29.94 in 10.0 mi Calm Calm - N/A   Clear
8:54 AM 55.0 °F - 26.1 °F 33% 29.93 in 10.0 mi Calm Calm - N/A   Clear
9:54 AM 64.9 °F - 27.0 °F 24% 29.89 in 10.0 mi Calm Calm - N/A   Clear
10:54 AM 71.1 °F - 25.0 °F 18% 29.84 in 10.0 mi ESE 3.5 mph - N/A   Clear
11:54 AM 75.9 °F - 24.1 °F 15% 29.80 in 10.0 mi SW 17.3 mph 28.8 mph 0.00 in   Clear
12:54 PM 75.9 °F - 25.0 °F 15% 29.77 in 10.0 mi WSW 15.0 mph 27.6 mph N/A   Clear
1:54 PM 77.0 °F - 26.1 °F 15% 29.75 in 10.0 mi SW 16.1 mph 26.5 mph N/A   Clear
2:54 PM 75.9 °F - 26.1 °F 16% 29.75 in 10.0 mi SW 20.7 mph 28.8 mph N/A   Clear
3:54 PM 73.9 °F - 25.0 °F 16% 29.75 in 10.0 mi WSW 26.5 mph 29.9 mph N/A   Clear
4:54 PM 71.1 °F - 24.1 °F 17% 29.75 in 10.0 mi WSW 21.9 mph 29.9 mph N/A   Clear
5:54 PM 68.0 °F - 24.1 °F 19% 29.77 in 10.0 mi SW 19.6 mph 26.5 mph N/A   Clear
6:54 PM 64.0 °F - 26.1 °F 24% 29.80 in 10.0 mi SW 12.7 mph - N/A   Clear
7:54 PM 61.0 °F - 26.1 °F 26% 29.80 in 10.0 mi WSW 9.2 mph - N/A   Clear
8:54 PM 57.9 °F - 26.1 °F 30% 29.79 in 10.0 mi WSW 6.9 mph - N/A   Clear
9:54 PM 55.0 °F - 26.1 °F 33% 29.77 in 10.0 mi WSW 6.9 mph - N/A   Clear
10:54 PM 54.0 °F - 26.1 °F 34% 29.75 in 10.0 mi South 5.8 mph - N/A   Clear
11:54 PM 50.0 °F - 26.1 °F 39% 29.75 in 10.0 mi SSE 3.5 mph - N/A   Clear